[[{"header":{"parameterUnit":"m.s-1","parameterCategory":1,"la1":30.2991,"la2":30.254,"lo1":-89.0895,"lo2":-89.0444,"dy":0.0017,"dx":0.0017,"nx":28,"ny":28,"refTime":"2024-03-28T03:00:00:Z","depth":0,"parameterNumber":2,"parameterNumberName":"U-component_of_WINDS"},"data":[0,0,0,0,0,0,0,0,0,0,0,0,0,0,0,0,0,0,0,0,0,0,0,0,0,0,0,0,0,0,0,0,0,0,0,0,0,0,0,0,0,0,0,0,0,0,0,0,0,0,0,0,0,0,0,0,0,0,-1.6462,-1.6462,0,-1.6481,-1.6481,-1.6482,-1.6464,-1.6463,-1.6463,-1.6462,-1.6482,-1.6484,-1.6485,0,0,0,0,0,0,0,0,0,0,0,0,0,-1.6412,-1.6413,-1.6462,-1.6462,-1.6462,-1.6481,-1.6481,-1.6482,-1.6464,-1.6463,-1.6462,-1.6462,-1.6482,-1.6483,-1.6485,0,0,0,0,0,0,0,0,0,0,0,0,0,-1.6433,-1.6413,-1.6462,-1.6456,-1.6456,-1.6481,-1.6481,-1.6482,-1.6464,-1.6463,-1.6462,-1.6461,-1.6482,-1.6483,-1.6485,-1.6518,0,0,-1.6491,-1.6491,0,0,0,0,0,0,0,0,-1.6431,-1.6434,-1.6457,-1.6456,-1.6456,-1.6469,-1.6471,-1.6494,-1.6465,-1.6461,-1.6462,-1.6461,-1.6479,-1.6481,-1.6487,-1.6519,-1.6519,-1.6491,-1.6492,-1.6493,-1.6493,0,0,0,0,0,0,0,-1.643,-1.6434,-1.647,-1.6457,-1.6457,-1.6453,-1.6455,-1.6475,-1.6476,-1.6461,-1.646,-1.6463,-1.6479,-1.6485,-1.6487,-1.652,-1.6491,-1.6492,-1.6493,-1.6494,-1.658,-1.6581,0,0,0,0,0,0,-1.6429,-1.6432,-1.6469,-1.647,-1.6441,-1.6455,-1.6457,-1.6466,-1.6475,-1.6476,-1.6463,-1.6462,-1.6483,-1.6485,-1.6488,-1.6527,-1.6493,-1.6494,-1.6495,-1.6579,-1.658,-1.6581,0,0,0,0,0,0,-1.6428,-1.6432,-1.6468,-1.6451,-1.6455,-1.6457,-1.6467,-1.6467,-1.6473,-1.6477,-1.6477,-1.647,-1.6482,-1.6485,-1.651,-1.6527,-1.6495,-1.6497,-1.6577,-1.6579,-1.6581,-1.6605,0,0,0,0,0,0,-1.6427,-1.6432,-1.6444,-1.6451,-1.6456,-1.649,-1.6468,-1.6468,-1.6477,-1.6474,-1.6483,-1.6484,-1.6481,-1.6508,-1.6512,-1.6529,-1.6498,-1.6576,-1.6578,-1.658,-1.6602,-1.6607,-1.6611,0,0,0,0,0,-1.6425,-1.645,-1.6445,-1.6449,-1.6471,-1.6491,-1.6494,-1.649,-1.6478,-1.649,-1.6493,-1.6483,-1.6525,-1.6511,-1.6515,-1.6533,-1.6575,-1.6578,-1.658,-1.66,-1.6606,-1.6611,0,0,0,0,0,0,-1.6445,-1.6451,-1.6445,-1.6473,-1.6482,-1.6488,-1.6503,-1.6496,-1.6509,-1.6506,-1.6502,-1.6504,-1.653,-1.6534,-1.6518,-1.6565,-1.6548,-1.6552,-1.6562,-1.6567,-1.6571,-1.657,-1.65,0,0,0,0,0,-1.6453,-1.6468,-1.6473,-1.6497,-1.6502,-1.6502,-1.6511,-1.6507,-1.6516,-1.6519,-1.6524,-1.6533,-1.6548,-1.6558,-1.6572,-1.6603,-1.6605,-1.6618,-1.6622,-1.6626,-1.6629,-1.6646,-1.6652,-1.659,-1.659,-1.659,0,0,-1.6469,-1.6474,-1.6484,-1.6501,-1.6508,-1.6524,-1.6505,-1.6523,-1.6535,-1.6522,-1.6546,-1.655,-1.656,-1.6588,-1.6601,-1.6592,-1.6647,-1.6629,-1.6632,-1.6633,-1.665,-1.6655,-1.6661,-1.6592,-1.6592,-1.6591,0,0,-1.6507,-1.6512,-1.6533,-1.654,-1.6549,-1.6549,-1.6555,-1.6562,-1.6564,-1.6588,-1.6578,-1.6593,-1.6619,-1.6627,-1.6634,-1.6676,-1.6668,-1.668,-1.6703,-1.672,-1.6725,-1.6729,-1.6744,-1.6749,-1.6684,-1.6684,-1.6684,0,-1.6526,-1.6549,-1.6545,-1.6564,-1.6572,-1.6561,-1.6583,-1.6589,-1.6603,-1.6609,-1.6599,-1.6632,-1.6638,-1.6668,-1.6679,-1.6685,-1.6691,-1.6679,-1.6724,-1.6728,-1.6732,-1.6747,-1.6752,-1.6685,-1.6685,-1.6685,-1.6685,0,-1.6572,-1.6589,-1.6605,-1.6618,-1.6628,-1.6649,-1.6648,-1.6659,-1.6655,-1.6656,-1.6681,-1.6688,-1.6703,-1.671,-1.6707,-1.6741,-1.6735,-1.6725,-1.6707,-1.674,-1.6753,-1.6758,-1.6687,-1.6687,-1.6686,-1.6686,0,0,-1.6623,-1.6634,-1.664,-1.6646,-1.6656,-1.6669,-1.6689,-1.6704,-1.6713,-1.6724,-1.6741,-1.6763,-1.6754,-1.6762,-1.676,-1.6775,-1.6807,-1.6763,-1.6763,-1.6771,-1.6845,-1.6852,-1.6859,-1.6802,-1.6803,-1.6804,-1.6844,0,-1.6661,-1.6695,-1.6692,-1.6724,-1.674,-1.673,-1.6748,-1.6756,-1.6758,-1.6772,-1.6775,-1.6791,-1.6778,-1.6783,-1.6797,-1.68,-1.6822,-1.6797,-1.6818,-1.6819,-1.6816,-1.6866,-1.6873,-1.6911,-1.6849,-1.685,-1.6851,0,-1.6709,-1.6721,-1.6755,-1.6763,-1.677,-1.6785,-1.6799,-1.6812,-1.6822,-1.6823,-1.6832,-1.6827,-1.6848,-1.683,-1.6859,-1.6842,-1.6851,-1.6854,-1.6855,-1.6857,-1.6837,-1.6868,-1.6923,-1.6928,-1.6859,-1.6858,-1.6858,0,-1.6743,-1.6767,-1.679,-1.6796,-1.6806,-1.6817,-1.6822,-1.6831,-1.684,-1.6852,-1.6858,-1.6873,-1.6881,-1.6893,-1.6892,-1.6879,-1.6922,-1.6904,-1.6923,-1.6923,-1.6932,-1.6931,-1.6988,-1.6938,-1.6938,-1.6938,-1.6938,0,-1.6785,-1.6807,-1.6806,-1.682,-1.6844,-1.6841,-1.6865,-1.6868,-1.6876,-1.6892,-1.6884,-1.6899,-1.6897,-1.6912,-1.6912,-1.6936,-1.694,-1.6941,-1.6941,-1.6942,-1.6942,-1.6947,-1.6944,-1.6939,-1.6939,-1.6939,-1.6938,0,-1.6826,-1.6826,-1.6852,-1.6859,-1.6861,-1.6879,-1.6885,-1.6899,-1.6901,-1.6921,-1.6925,-1.6928,-1.6946,-1.6946,-1.6966,-1.6966,-1.6995,-1.6992,-1.6992,-1.6991,-1.7011,-1.7009,-1.7073,-1.7081,-1.7025,-1.7026,-1.7026,0,-1.6853,-1.6869,-1.6879,-1.6888,-1.6894,-1.6909,-1.6919,-1.6917,-1.6927,-1.6939,-1.6952,-1.6969,-1.6982,-1.7011,-1.7015,-1.703,-1.7027,-1.7049,-1.7029,-1.703,-1.7028,-1.7027,-1.7028,-1.7052,-1.7053,-1.7053,-1.7054,0,-1.6902,-1.6901,-1.6915,-1.6929,-1.694,-1.6951,-1.6961,-1.697,-1.6969,-1.6981,-1.6998,-1.7009,-1.7029,-1.7046,-1.7061,-1.7067,-1.706,-1.706,-1.7065,-1.7066,-1.7065,-1.7066,-1.7002,-1.7058,-1.7058,-1.7057,-1.7057,-1.7057,-1.6937,-1.695,-1.6959,-1.6975,-1.6982,-1.6992,-1.7006,-1.7009,-1.7023,-1.704,-1.7038,-1.7057,-1.7067,-1.7087,-1.7094,-1.7109,-1.7102,-1.711,-1.7112,-1.7114,-1.7116,-1.7063,-1.7112,-1.7112,-1.7112,-1.7112,-1.7112,0,-1.6984,-1.699,-1.7004,-1.7018,-1.7031,-1.7023,-1.7034,-1.7046,-1.7063,-1.7072,-1.7085,-1.7106,-1.7122,-1.7128,-1.7144,-1.7156,-1.7153,-1.716,-1.7159,-1.7161,-1.7121,-1.7115,-1.7162,-1.7162,-1.7162,-1.7162,-1.7162,-1.7162,-1.7011,-1.7034,-1.7035,-1.7062,-1.7067,-1.7086,-1.7093,-1.7102,-1.7109,-1.7133,-1.7146,-1.7149,-1.7158,-1.7174,-1.7189,-1.7191,-1.7197,-1.7205,-1.7205,-1.7168,-1.7163,-1.7158,-1.7153,-1.7206,-1.7206,-1.7243,-1.7243,-1.7244]},{"header":{"parameterUnit":"m.s-1","parameterCategory":1,"la1":30.2991,"la2":30.254,"lo1":-89.0895,"lo2":-89.0444,"dy":0.0017,"dx":0.0017,"nx":28,"ny":28,"refTime":"2024-03-28T03:00:00:Z","depth":0,"parameterNumber":3,"parameterNumberName":"V-component_of_WINDS"},"data":[0,0,0,0,0,0,0,0,0,0,0,0,0,0,0,0,0,0,0,0,0,0,0,0,0,0,0,0,0,0,0,0,0,0,0,0,0,0,0,0,0,0,0,0,0,0,0,0,0,0,0,0,0,0,0,0,0,0,4.476,4.4761,0,4.4816,4.4817,4.4817,4.4779,4.4777,4.4776,4.4774,4.4827,4.483,4.4833,0,0,0,0,0,0,0,0,0,0,0,0,0,4.4618,4.462,4.476,4.4761,4.4762,4.4816,4.4817,4.4817,4.4779,4.4777,4.4775,4.4773,4.4826,4.483,4.4834,0,0,0,0,0,0,0,0,0,0,0,0,0,4.4677,4.4621,4.476,4.4749,4.4749,4.4816,4.4817,4.4817,4.478,4.4777,4.4775,4.4772,4.4825,4.483,4.4834,4.4913,0,0,4.4848,4.485,0,0,0,0,0,0,0,0,4.4674,4.4682,4.475,4.475,4.475,4.4788,4.4786,4.4849,4.4781,4.4768,4.4774,4.4771,4.4816,4.4821,4.4837,4.4916,4.4918,4.4848,4.4851,4.4853,4.4854,0,0,0,0,0,0,0,4.467,4.468,4.4782,4.4751,4.4751,4.4741,4.4746,4.4798,4.4806,4.4769,4.4766,4.4774,4.4815,4.4833,4.4838,4.4919,4.4848,4.4852,4.4855,4.4857,4.5065,4.5067,0,0,0,0,0,0,4.4667,4.4676,4.478,4.4784,4.4705,4.4745,4.4752,4.4778,4.4805,4.4807,4.4776,4.4772,4.4826,4.4833,4.484,4.4934,4.4853,4.4857,4.486,4.5062,4.5065,4.5068,0,0,0,0,0,0,4.4664,4.4677,4.4778,4.4729,4.4742,4.475,4.4781,4.4781,4.4798,4.481,4.4811,4.4792,4.4825,4.4833,4.4895,4.4935,4.4859,4.4863,4.5058,4.5063,4.5067,4.5123,0,0,0,0,0,0,4.466,4.4676,4.4707,4.4731,4.4744,4.4834,4.4783,4.4784,4.4807,4.4802,4.4826,4.4828,4.4823,4.4889,4.49,4.494,4.4867,4.5055,4.506,4.5065,4.5118,4.5129,4.5138,0,0,0,0,0,4.4655,4.472,4.4709,4.4721,4.4784,4.4836,4.4844,4.4839,4.481,4.4841,4.4848,4.4827,4.4929,4.4896,4.4908,4.495,4.5052,4.5059,4.5065,4.5113,4.5127,4.5138,0,0,0,0,0,0,4.4699,4.4723,4.471,4.4785,4.4809,4.483,4.4868,4.4854,4.4886,4.488,4.4871,4.4877,4.4941,4.4952,4.4914,4.5028,4.4986,4.4995,4.5019,4.5032,4.5042,4.5037,4.4871,0,0,0,0,0,4.4718,4.476,4.4778,4.4841,4.4854,4.486,4.4882,4.4877,4.4901,4.491,4.4923,4.4946,4.4983,4.5008,4.5043,4.5119,4.5124,4.5154,4.5165,4.5173,4.5181,4.5221,4.5235,4.5089,4.5089,4.5089,0,0,4.4756,4.4774,4.4801,4.4851,4.4869,4.4912,4.4868,4.4915,4.4947,4.4917,4.4977,4.4986,4.5012,4.5081,4.5112,4.5092,4.5222,4.5181,4.5188,4.5191,4.5229,4.5243,4.5255,4.5093,4.5092,4.5092,0,0,4.4848,4.4866,4.4921,4.4941,4.4969,4.4972,4.4985,4.5009,4.5015,4.5074,4.5053,4.5089,4.5154,4.5173,4.5191,4.5291,4.5272,4.5302,4.5356,4.5395,4.5407,4.5417,4.5452,4.5465,4.531,4.531,4.531,0,4.4891,4.4956,4.4951,4.5,4.5022,4.4999,4.5054,4.5073,4.5111,4.5126,4.5103,4.5184,4.5199,4.5273,4.5297,4.5312,4.5327,4.5299,4.5406,4.5416,4.5425,4.5459,4.5472,4.5314,4.5313,4.5313,4.5313,0,4.5008,4.5054,4.5095,4.5133,4.516,4.5212,4.5214,4.5241,4.5233,4.5238,4.5299,4.5317,4.5355,4.5372,4.5364,4.5445,4.5431,4.5407,4.5365,4.5443,4.5474,4.5487,4.5319,4.5317,4.5316,4.5316,0,0,4.5129,4.5165,4.518,4.5197,4.5227,4.5261,4.5312,4.535,4.5374,4.5401,4.5442,4.5498,4.5476,4.5497,4.549,4.5526,4.5603,4.5497,4.5497,4.5516,4.5692,4.5709,4.5724,4.5591,4.5593,4.5595,4.5689,0,4.5222,4.5312,4.5309,4.5391,4.5433,4.5411,4.5455,4.5477,4.5484,4.5519,4.5525,4.5564,4.5533,4.5545,4.5579,4.5586,4.5638,4.5579,4.5628,4.563,4.5622,4.5741,4.5759,4.5848,4.5702,4.5704,4.5705,0,4.5343,4.5375,4.5463,4.5486,4.5504,4.5543,4.5578,4.5613,4.5637,4.5639,4.5663,4.5651,4.5701,4.5658,4.5726,4.5687,4.5706,4.5713,4.5716,4.572,4.5672,4.5747,4.5876,4.5889,4.5724,4.5723,4.5721,0,4.5421,4.5487,4.5548,4.5563,4.5592,4.5621,4.5634,4.5656,4.568,4.571,4.5725,4.576,4.578,4.5807,4.5805,4.5774,4.5874,4.5831,4.5876,4.5876,4.5897,4.5896,4.6031,4.5911,4.5911,4.5911,4.591,0,4.5525,4.558,4.5584,4.5621,4.5681,4.5676,4.5735,4.5745,4.5765,4.5803,4.5786,4.5822,4.5817,4.5853,4.5852,4.5908,4.5917,4.5919,4.5918,4.592,4.592,4.5933,4.5926,4.5914,4.5913,4.5913,4.5912,0,4.5623,4.5628,4.5693,4.5716,4.5723,4.5766,4.5785,4.582,4.5825,4.5873,4.5884,4.5892,4.5933,4.5933,4.598,4.5979,4.6048,4.604,4.604,4.6038,4.6083,4.6079,4.623,4.625,4.6118,4.6119,4.612,0,4.5689,4.5731,4.5759,4.5784,4.5799,4.5839,4.5864,4.5861,4.5886,4.5918,4.5949,4.5988,4.602,4.6087,4.6095,4.6131,4.6123,4.6174,4.6128,4.613,4.6124,4.6121,4.6125,4.6183,4.6184,4.6185,4.6186,0,4.5806,4.5806,4.5843,4.588,4.591,4.5939,4.5966,4.5987,4.5986,4.6016,4.6059,4.6083,4.6132,4.6171,4.6206,4.6218,4.6202,4.6201,4.6213,4.6216,4.6214,4.6215,4.6064,4.6197,4.6196,4.6195,4.6195,4.6194,4.589,4.5926,4.5951,4.5992,4.6012,4.6037,4.6071,4.6081,4.6117,4.6157,4.6153,4.62,4.6223,4.6268,4.6283,4.6319,4.6301,4.6319,4.6324,4.6328,4.6333,4.6209,4.6325,4.6325,4.6325,4.6325,4.6324,0,4.6005,4.6021,4.6058,4.6097,4.6129,4.6113,4.6141,4.6169,4.6211,4.6235,4.6267,4.6315,4.6354,4.6366,4.6402,4.6429,4.6423,4.6439,4.6436,4.6439,4.6347,4.6332,4.6443,4.6443,4.6443,4.6443,4.6443,4.6443,4.6069,4.6129,4.6132,4.6201,4.6216,4.6263,4.6281,4.6304,4.6323,4.6378,4.6411,4.6419,4.6437,4.6475,4.6509,4.6512,4.6526,4.6545,4.6545,4.6458,4.6446,4.6434,4.6421,4.6548,4.6548,4.6634,4.6635,4.6635]}]]